VXP232 KLAL-KHVN

Flight info

Callsign VXP232
Flight time 2h 36m
Altitude 37000
Route NITTS WILON CAMJO Q99 POLYY DADDS Q64 SAWED Q97 KALDA SARDI1
Aircraft B738/M-V/N

Departure

Time 2026-04-26 20:25
Airport Lakeland Linder International Airport (KLAL)

Arrival

Time 2026-04-26 23:01
Airport Tweed New Haven Airport (KHVN)
Time Latitude Longitude Altitude Speed Heading
2026-04-26 20:04 27.99390 -82.01417 148 ft 0 kts
2026-04-26 20:17 27.99395 -82.01421 148 ft 0 kts 323°
2026-04-26 20:17 27.99395 -82.01431 148 ft 1 kts 266°
2026-04-26 20:17 27.99394 -82.01434 148 ft 1 kts 254°
2026-04-26 20:18 27.99394 -82.01435 148 ft 1 kts 254°
2026-04-26 20:18 27.99394 -82.01436 148 ft 0 kts 254°
2026-04-26 20:20 27.99393 -82.01437 148 ft 2 kts 251°
2026-04-26 20:20 27.99367 -82.01443 147 ft 5 kts 135°
2026-04-26 20:20 27.99348 -82.01369 147 ft 13 kts 97°
2026-04-26 20:20 27.99318 -82.01305 147 ft 6 kts 135°
2026-04-26 20:21 27.99289 -82.01271 145 ft 6 kts 133°
2026-04-26 20:21 27.99267 -82.01240 145 ft 8 kts 118°
2026-04-26 20:21 27.99288 -82.01158 145 ft 14 kts 49°
2026-04-26 20:21 27.99360 -82.01070 144 ft 12 kts 54°
2026-04-26 20:22 27.99364 -82.01024 144 ft 4 kts 112°
2026-04-26 20:22 27.99322 -82.00964 144 ft 12 kts 134°
2026-04-26 20:22 27.99265 -82.00899 145 ft 13 kts 134°
2026-04-26 20:22 27.99203 -82.00828 149 ft 10 kts 134°
2026-04-26 20:23 27.99169 -82.00791 150 ft 5 kts 139°
2026-04-26 20:23 27.99141 -82.00771 151 ft 3 kts 158°
2026-04-26 20:23 27.99100 -82.00764 151 ft 10 kts 177°
2026-04-26 20:23 27.98995 -82.00764 151 ft 17 kts 181°
2026-04-26 20:24 27.98931 -82.00820 149 ft 11 kts 260°
2026-04-26 20:24 27.98926 -82.01168 145 ft 82 kts 270°
2026-04-26 20:24 27.98932 -82.01990 214 ft 117 kts 267°
2026-04-26 20:24 27.98886 -82.03028 426 ft 140 kts 265°
2026-04-26 20:25 27.98786 -82.04124 891 ft 137 kts 262°
2026-04-26 20:25 27.98670 -82.04823 1205 ft 135 kts 258°
2026-04-26 20:25 27.99183 -82.06032 1537 ft 149 kts 329°
2026-04-26 20:25 28.00129 -82.06545 1884 ft 155 kts 332°
2026-04-26 20:26 28.01166 -82.07065 1942 ft 174 kts 333°
2026-04-26 20:26 28.02313 -82.07657 1951 ft 188 kts 333°
2026-04-26 20:26 28.03537 -82.08282 1958 ft 197 kts 332°
2026-04-26 20:26 28.04829 -82.08922 1955 ft 207 kts 334°
2026-04-26 20:27 28.06146 -82.09577 1940 ft 203 kts 335°
2026-04-26 20:27 28.07441 -82.10211 1935 ft 204 kts 333°
2026-04-26 20:27 28.08749 -82.10854 1934 ft 208 kts 334°
2026-04-26 20:27 28.10048 -82.11488 1933 ft 201 kts 333°
2026-04-26 20:28 28.11369 -82.12136 1937 ft 208 kts 335°
2026-04-26 20:28 28.12653 -82.12759 2156 ft 194 kts 334°
2026-04-26 20:28 28.13867 -82.13336 2548 ft 185 kts 333°
2026-04-26 20:28 28.15044 -82.13894 2963 ft 181 kts 335°
2026-04-26 20:29 28.16175 -82.14425 3345 ft 170 kts 333°
2026-04-26 20:29 28.17295 -82.14950 3701 ft 185 kts 333°
2026-04-26 20:29 28.18561 -82.15556 4062 ft 205 kts 333°
2026-04-26 20:29 28.19884 -82.16194 4451 ft 213 kts 334°
2026-04-26 20:30 28.21233 -82.16846 4851 ft 212 kts 334°
2026-04-26 20:30 28.22625 -82.17520 5314 ft 214 kts 334°
2026-04-26 20:30 28.24026 -82.18199 5826 ft 231 kts 334°
2026-04-26 20:30 28.25626 -82.18778 6378 ft 252 kts 344°
2026-04-26 20:31 28.27388 -82.19267 6890 ft 270 kts 341°
2026-04-26 20:31 28.29130 -82.20055 7403 ft 270 kts 330°
2026-04-26 20:31 28.30745 -82.21152 7915 ft 274 kts 326°
2026-04-26 20:31 28.32370 -82.22312 8418 ft 274 kts 328°
2026-04-26 20:32 28.34015 -82.23373 8927 ft 279 kts 330°
2026-04-26 20:32 28.35690 -82.24415 9424 ft 279 kts 329°
2026-04-26 20:32 28.37378 -82.25501 9929 ft 283 kts 329°
2026-04-26 20:32 28.39069 -82.26608 10369 ft 283 kts 329°
2026-04-26 20:33 28.40797 -82.27730 10836 ft 287 kts 329°
2026-04-26 20:33 28.42553 -82.28863 11294 ft 294 kts 329°
2026-04-26 20:33 28.44363 -82.30033 11904 ft 305 kts 329°
2026-04-26 20:33 28.46231 -82.31245 12559 ft 314 kts 329°
2026-04-26 20:34 28.48156 -82.32493 13235 ft 322 kts 329°
2026-04-26 20:34 28.50123 -82.33768 13900 ft 329 kts 329°
2026-04-26 20:34 28.52139 -82.35075 14511 ft 335 kts 329°
2026-04-26 20:34 28.54183 -82.36403 15134 ft 342 kts 329°
2026-04-26 20:35 28.56261 -82.37751 15764 ft 347 kts 329°
2026-04-26 20:35 28.58376 -82.39124 16408 ft 352 kts 328°
2026-04-26 20:35 28.60517 -82.40515 17060 ft 356 kts 328°
2026-04-26 20:35 28.62656 -82.41907 17717 ft 360 kts 328°
2026-04-26 20:36 28.64839 -82.43327 18377 ft 362 kts 328°
2026-04-26 20:36 28.67040 -82.44759 18947 ft 365 kts 328°
2026-04-26 20:36 28.69248 -82.46196 19551 ft 368 kts 328°
2026-04-26 20:36 28.71479 -82.47650 20160 ft 370 kts 328°
2026-04-26 20:37 28.73729 -82.49078 20832 ft 371 kts 333°
2026-04-26 20:37 28.76196 -82.50004 21548 ft 373 kts 342°
2026-04-26 20:37 28.78710 -82.50733 22260 ft 372 kts 343°
2026-04-26 20:37 28.81208 -82.51453 22971 ft 370 kts 342°
2026-04-26 20:38 28.83691 -82.52182 23670 ft 368 kts 342°
2026-04-26 20:38 28.86157 -82.52911 24280 ft 365 kts 342°
2026-04-26 20:38 28.88616 -82.53633 24907 ft 362 kts 342°
2026-04-26 20:38 28.91043 -82.54342 25545 ft 358 kts 342°
2026-04-26 20:39 28.93416 -82.55039 26192 ft 354 kts 342°
2026-04-26 20:39 28.94995 -82.55504 26623 ft 350 kts 342°
2026-04-26 20:39 28.98119 -82.56422 27522 ft 343 kts 342°
2026-04-26 20:39 29.00410 -82.57096 28208 ft 336 kts 342°
2026-04-26 20:40 29.02654 -82.57756 28894 ft 329 kts 342°
2026-04-26 20:40 29.04844 -82.58401 29631 ft 321 kts 342°
2026-04-26 20:40 29.06982 -82.59030 30300 ft 312 kts 342°
2026-04-26 20:40 29.09057 -82.59640 30918 ft 303 kts 341°
2026-04-26 20:41 29.11066 -82.60233 31540 ft 293 kts 341°
2026-04-26 20:41 29.13001 -82.60803 32164 ft 282 kts 341°
2026-04-26 20:41 29.14863 -82.61352 32791 ft 270 kts 340°
2026-04-26 20:41 29.16639 -82.61881 33398 ft 256 kts 340°
2026-04-26 20:42 29.18341 -82.62381 33767 ft 249 kts 340°
2026-04-26 20:42 29.19998 -82.62870 33921 ft 250 kts 340°
2026-04-26 20:42 29.21699 -82.63374 34052 ft 249 kts 340°
2026-04-26 20:42 29.23369 -82.63867 34196 ft 247 kts 340°
2026-04-26 20:43 29.25000 -82.64349 34364 ft 244 kts 340°
2026-04-26 20:43 29.26659 -82.64840 34544 ft 243 kts 340°
2026-04-26 20:43 29.28288 -82.65323 34711 ft 241 kts 340°
2026-04-26 20:43 29.29921 -82.65807 34771 ft 244 kts 340°
2026-04-26 20:44 29.31575 -82.66297 34838 ft 247 kts 340°
2026-04-26 20:44 29.33222 -82.66784 34920 ft 248 kts 340°
2026-04-26 20:44 29.34912 -82.67283 35041 ft 248 kts 339°
2026-04-26 20:44 29.36564 -82.67774 35133 ft 249 kts 339°
2026-04-26 20:45 29.38240 -82.68271 35218 ft 250 kts 339°
2026-04-26 20:45 29.39921 -82.68768 35405 ft 247 kts 339°
2026-04-26 20:45 29.41586 -82.69243 35580 ft 246 kts 348°
2026-04-26 20:45 29.43320 -82.69315 35730 ft 249 kts 352°
2026-04-26 20:46 29.45046 -82.69303 35945 ft 246 kts 352°
2026-04-26 20:46 29.46750 -82.69289 36098 ft 244 kts 352°
2026-04-26 20:46 29.48447 -82.69280 36150 ft 246 kts 352°
2026-04-26 20:46 29.50171 -82.69272 36167 ft 249 kts 352°
2026-04-26 20:47 29.51885 -82.69261 36254 ft 248 kts 352°
2026-04-26 20:47 29.53047 -82.69251 36387 ft 247 kts 352°
2026-04-26 20:47 29.55319 -82.69237 36524 ft 246 kts 352°
2026-04-26 20:47 29.57040 -82.69229 36552 ft 249 kts 352°
2026-04-26 20:48 29.58784 -82.69218 36606 ft 250 kts 352°
2026-04-26 20:48 29.60497 -82.69205 36741 ft 248 kts 352°
2026-04-26 20:48 29.62221 -82.69194 36872 ft 246 kts 352°
2026-04-26 20:48 29.63936 -82.69184 36940 ft 249 kts 351°
2026-04-26 20:49 29.65683 -82.69177 36945 ft 253 kts 352°
2026-04-26 20:49 29.67461 -82.69166 36936 ft 256 kts 352°
2026-04-26 20:49 29.69255 -82.69153 36935 ft 260 kts 352°
2026-04-26 20:49 29.71075 -82.69142 36944 ft 264 kts 352°
2026-04-26 20:50 29.72929 -82.69131 36948 ft 268 kts 352°
2026-04-26 20:50 29.74804 -82.69120 36951 ft 273 kts 352°
2026-04-26 20:50 29.76725 -82.69108 36949 ft 278 kts 352°
2026-04-26 20:50 29.78689 -82.69096 36948 ft 284 kts 353°
2026-04-26 20:51 29.80688 -82.69084 36945 ft 290 kts 353°
2026-04-26 20:51 29.82733 -82.69071 36946 ft 297 kts 353°
2026-04-26 20:51 29.84828 -82.69058 36945 ft 304 kts 353°
2026-04-26 20:52 29.89131 -82.69031 36946 ft 318 kts 353°
2026-04-26 20:52 29.93659 -82.69003 36945 ft 333 kts 353°
2026-04-26 20:53 29.98414 -82.68973 36941 ft 349 kts 354°
2026-04-26 20:53 30.03262 -82.68942 36934 ft 364 kts 354°
2026-04-26 20:54 30.08436 -82.68910 36929 ft 380 kts 354°
2026-04-26 20:54 30.13830 -82.68876 36923 ft 395 kts 354°
2026-04-26 20:55 30.19437 -82.68840 36921 ft 410 kts 354°
2026-04-26 20:55 30.25248 -82.68804 36976 ft 425 kts 355°
2026-04-26 20:56 30.31208 -82.68762 36985 ft 428 kts 355°
2026-04-26 20:56 30.37122 -82.68726 36989 ft 427 kts 355°
2026-04-26 20:57 30.43068 -82.68688 37003 ft 428 kts 355°
2026-04-26 20:57 30.49015 -82.68650 37008 ft 427 kts 355°
2026-04-26 20:58 30.54968 -82.67764 37004 ft 434 kts
2026-04-26 20:58 30.60882 -82.66517 37009 ft 434 kts
2026-04-26 20:59 30.65861 -82.65454 37012 ft 434 kts
2026-04-26 20:59 30.71816 -82.64181 37014 ft 434 kts
2026-04-26 21:00 30.77742 -82.62917 37000 ft 435 kts
2026-04-26 21:00 30.83707 -82.61639 36998 ft 435 kts
2026-04-26 21:01 30.89661 -82.60366 36988 ft 435 kts
2026-04-26 21:01 30.95641 -82.59082 36953 ft 436 kts
2026-04-26 21:02 31.01564 -82.57811 36947 ft 435 kts
2026-04-26 21:02 31.07557 -82.56429 36948 ft 441 kts
2026-04-26 21:03 31.13236 -82.53529 36950 ft 454 kts 19°
2026-04-26 21:03 31.18836 -82.50129 36960 ft 453 kts 19°
2026-04-26 21:04 31.24434 -82.46735 36923 ft 453 kts 19°
2026-04-26 21:04 31.30026 -82.43329 36937 ft 453 kts 19°
2026-04-26 21:05 31.35643 -82.39914 36933 ft 455 kts 19°
2026-04-26 21:05 31.41238 -82.36496 36921 ft 454 kts 19°
2026-04-26 21:06 31.46849 -82.33075 36920 ft 453 kts 19°
2026-04-26 21:06 31.52431 -82.29659 36919 ft 453 kts 19°
2026-04-26 21:07 31.58019 -82.26239 36925 ft 452 kts 19°
2026-04-26 21:07 31.63586 -82.22825 36921 ft 451 kts 19°
2026-04-26 21:08 31.69161 -82.19404 36922 ft 451 kts 19°
2026-04-26 21:08 31.74723 -82.15983 36924 ft 451 kts 19°
2026-04-26 21:09 31.80281 -82.12563 36923 ft 451 kts 19°
2026-04-26 21:09 31.85828 -82.09144 36911 ft 457 kts 19°
2026-04-26 21:10 31.91512 -82.05634 36916 ft 459 kts 19°
2026-04-26 21:10 31.97161 -82.02141 36915 ft 458 kts 19°
2026-04-26 21:11 32.02771 -81.98670 36919 ft 458 kts 19°
2026-04-26 21:11 32.08424 -81.95164 36909 ft 458 kts 19°
2026-04-26 21:12 32.14078 -81.91658 36904 ft 461 kts 19°
2026-04-26 21:12 32.19813 -81.88298 36905 ft 459 kts 18°
2026-04-26 21:13 32.25527 -81.84917 36906 ft 459 kts 18°
2026-04-26 21:13 32.31236 -81.81584 36905 ft 458 kts 18°
2026-04-26 21:14 32.36962 -81.78203 36906 ft 459 kts 18°
2026-04-26 21:14 32.42625 -81.74874 36908 ft 458 kts 18°
2026-04-26 21:15 32.48332 -81.71503 36906 ft 458 kts 18°
2026-04-26 21:15 32.54049 -81.68129 36906 ft 458 kts 18°
2026-04-26 21:16 32.59779 -81.64737 36936 ft 458 kts 19°
2026-04-26 21:16 32.65496 -81.61350 36934 ft 457 kts 19°
2026-04-26 21:17 32.71162 -81.57990 36935 ft 458 kts 19°
2026-04-26 21:17 32.76875 -81.54594 36935 ft 458 kts 19°
2026-04-26 21:18 32.82577 -81.51202 36940 ft 458 kts 19°
2026-04-26 21:18 32.88293 -81.47796 36937 ft 459 kts 19°
2026-04-26 21:19 32.93978 -81.44402 36932 ft 457 kts 19°
2026-04-26 21:19 32.99662 -81.41007 36931 ft 457 kts 19°
2026-04-26 21:20 33.05319 -81.37621 36950 ft 458 kts 19°
2026-04-26 21:20 33.11019 -81.34205 36946 ft 458 kts 19°
2026-04-26 21:21 33.16728 -81.30778 36950 ft 458 kts 19°
2026-04-26 21:21 33.22419 -81.27357 36959 ft 457 kts 19°
2026-04-26 21:22 33.28112 -81.23932 36958 ft 461 kts 20°
2026-04-26 21:22 33.33841 -81.20474 36962 ft 460 kts 19°
2026-04-26 21:23 33.42404 -81.15304 36957 ft 460 kts 20°
2026-04-26 21:23 33.48124 -81.11844 36953 ft 460 kts 19°
2026-04-26 21:24 33.53847 -81.08375 36948 ft 461 kts 20°
2026-04-26 21:24 33.59575 -81.04899 36950 ft 461 kts 20°
2026-04-26 21:25 33.65307 -81.01415 36943 ft 462 kts 20°
2026-04-26 21:25 33.71043 -80.97922 36948 ft 461 kts 20°
2026-04-26 21:26 33.76731 -80.94456 36958 ft 461 kts 20°
2026-04-26 21:26 33.82458 -80.90959 36962 ft 461 kts 20°
2026-04-26 21:27 33.87959 -80.86733 36986 ft 478 kts 31°
2026-04-26 21:27 33.93191 -80.81818 36958 ft 475 kts 31°
2026-04-26 21:28 33.98379 -80.76967 36957 ft 475 kts 31°
2026-04-26 21:28 34.03594 -80.72061 36961 ft 475 kts 31°
2026-04-26 21:29 34.08826 -80.67139 36970 ft 475 kts 31°
2026-04-26 21:29 34.14030 -80.62231 37012 ft 476 kts 31°
2026-04-26 21:30 34.19206 -80.57343 37036 ft 475 kts 31°
2026-04-26 21:30 34.23569 -80.53218 37046 ft 476 kts 31°
2026-04-26 21:31 34.29708 -80.47473 37029 ft 478 kts 30°
2026-04-26 21:31 34.35020 -80.42632 37024 ft 479 kts 31°
2026-04-26 21:32 34.40309 -80.37710 37020 ft 478 kts 31°
2026-04-26 21:32 34.45592 -80.32849 37019 ft 478 kts 31°
2026-04-26 21:33 34.50836 -80.27976 37026 ft 478 kts 31°
2026-04-26 21:33 34.56131 -80.23072 37035 ft 478 kts 31°
2026-04-26 21:34 34.61412 -80.18159 37029 ft 478 kts 31°
2026-04-26 21:34 34.66708 -80.13233 37041 ft 482 kts 32°
2026-04-26 21:35 34.71990 -80.08306 37045 ft 480 kts 32°
2026-04-26 21:35 34.77306 -80.03371 37045 ft 480 kts 32°
2026-04-26 21:36 34.81564 -79.99033 37068 ft 487 kts 42°
2026-04-26 21:36 34.86621 -79.91551 37055 ft 486 kts 46°
2026-04-26 21:37 34.90914 -79.85157 37064 ft 488 kts 46°
2026-04-26 21:37 34.95179 -79.78756 37063 ft 489 kts 46°
2026-04-26 21:38 34.99495 -79.72287 37059 ft 491 kts 46°
2026-04-26 21:38 35.03796 -79.65817 37049 ft 490 kts 46°
2026-04-26 21:39 35.07361 -79.60450 37043 ft 488 kts 46°
2026-04-26 21:39 35.11632 -79.54010 37044 ft 488 kts 46°
2026-04-26 21:40 35.16584 -79.46525 37059 ft 487 kts 46°
2026-04-26 21:40 35.20157 -79.41116 37069 ft 488 kts 46°
2026-04-26 21:41 35.24411 -79.34664 37070 ft 490 kts 47°
2026-04-26 21:41 35.28691 -79.28159 37077 ft 490 kts 47°
2026-04-26 21:42 35.32951 -79.21675 37064 ft 488 kts 47°
2026-04-26 21:42 35.37211 -79.15177 37073 ft 488 kts 47°
2026-04-26 21:43 35.41459 -79.08686 37076 ft 488 kts 47°
2026-04-26 21:43 35.45707 -79.02185 37084 ft 491 kts 47°
2026-04-26 21:44 35.49956 -78.95665 37066 ft 491 kts 47°
2026-04-26 21:44 35.54222 -78.89110 37069 ft 490 kts 47°
2026-04-26 21:45 35.58467 -78.82575 37064 ft 489 kts 48°
2026-04-26 21:45 35.62056 -78.75428 37090 ft 498 kts 64°
2026-04-26 21:46 35.64747 -78.67565 37063 ft 498 kts 64°
2026-04-26 21:46 35.67459 -78.59695 37091 ft 501 kts 64°
2026-04-26 21:47 35.70161 -78.51792 37090 ft 500 kts 65°
2026-04-26 21:47 35.72824 -78.44003 37087 ft 497 kts 65°
2026-04-26 21:48 35.75502 -78.36152 37089 ft 497 kts 65°
2026-04-26 21:48 35.78174 -78.28303 37086 ft 497 kts 65°
2026-04-26 21:49 35.80845 -78.20432 37087 ft 497 kts 65°
2026-04-26 21:49 35.83503 -78.12582 37095 ft 497 kts 65°
2026-04-26 21:50 35.86162 -78.04705 37098 ft 498 kts 65°
2026-04-26 21:50 35.88818 -77.96820 37101 ft 498 kts 65°
2026-04-26 21:51 35.91472 -77.88919 37089 ft 497 kts 65°
2026-04-26 21:51 35.94099 -77.81076 37115 ft 497 kts 65°
2026-04-26 21:52 35.96752 -77.73185 37113 ft 496 kts 63°
2026-04-26 21:52 35.98480 -77.69529 37125 ft 493 kts 50°
2026-04-26 21:52 36.00691 -77.66317 37120 ft 490 kts 44°
2026-04-26 21:53 36.05324 -77.60137 37124 ft 490 kts 44°
2026-04-26 21:53 36.09962 -77.53900 37153 ft 494 kts 45°
2026-04-26 21:54 36.14591 -77.47676 37111 ft 491 kts 45°
2026-04-26 21:54 36.19191 -77.41480 37124 ft 491 kts 45°
2026-04-26 21:55 36.23808 -77.35244 37133 ft 491 kts 45°
2026-04-26 21:55 36.28428 -77.28997 37143 ft 491 kts 45°
2026-04-26 21:56 36.33226 -77.22898 37149 ft 487 kts 39°
2026-04-26 21:56 36.38300 -77.17292 37144 ft 490 kts 40°
2026-04-26 21:57 36.43356 -77.11593 37140 ft 490 kts 40°
2026-04-26 21:57 36.48429 -77.05926 37132 ft 490 kts 40°
2026-04-26 21:58 36.53455 -77.00265 37130 ft 490 kts 40°
2026-04-26 21:58 36.58490 -76.94604 37144 ft 487 kts 40°
2026-04-26 21:59 36.63518 -76.88931 37146 ft 487 kts 40°
2026-04-26 21:59 36.68564 -76.83232 37138 ft 492 kts 40°
2026-04-26 22:00 36.73591 -76.77540 37149 ft 491 kts 40°
2026-04-26 22:00 36.78631 -76.71824 37147 ft 489 kts 40°
2026-04-26 22:01 36.83671 -76.66099 37138 ft 489 kts 40°
2026-04-26 22:01 36.88690 -76.60385 37142 ft 488 kts 40°
2026-04-26 22:02 36.92868 -76.55622 37145 ft 489 kts 40°
2026-04-26 22:02 36.98754 -76.48897 37130 ft 491 kts 41°
2026-04-26 22:03 37.03820 -76.43099 37132 ft 494 kts 41°
2026-04-26 22:03 37.08865 -76.37311 37138 ft 494 kts 41°
2026-04-26 22:04 37.13930 -76.31493 37136 ft 494 kts 41°
2026-04-26 22:04 37.18997 -76.25658 37139 ft 493 kts 41°
2026-04-26 22:05 37.24058 -76.19822 37144 ft 493 kts 41°
2026-04-26 22:05 37.29102 -76.13993 37133 ft 493 kts 41°
2026-04-26 22:06 37.34199 -76.08093 37131 ft 498 kts 41°
2026-04-26 22:06 37.39260 -76.02219 37146 ft 499 kts 41°
2026-04-26 22:07 37.44368 -75.96285 37152 ft 499 kts 41°
2026-04-26 22:07 37.49455 -75.90359 37156 ft 499 kts 41°
2026-04-26 22:08 37.54765 -75.84749 37174 ft 495 kts 29°
2026-04-26 22:08 37.60685 -75.80331 37162 ft 495 kts 28°
2026-04-26 22:09 37.66615 -75.75879 37159 ft 498 kts 28°
2026-04-26 22:09 37.72585 -75.71395 37160 ft 498 kts 28°
2026-04-26 22:10 37.78535 -75.66919 37163 ft 498 kts 28°
2026-04-26 22:10 37.84430 -75.62443 37164 ft 497 kts 32°
2026-04-26 22:11 37.90148 -75.57464 37170 ft 498 kts 32°
2026-04-26 22:11 37.95865 -75.52514 37174 ft 498 kts 32°
2026-04-26 22:12 38.01564 -75.47521 37154 ft 493 kts 32°
2026-04-26 22:12 38.07275 -75.42691 37170 ft 494 kts 29°
2026-04-26 22:13 38.13096 -75.37912 37169 ft 501 kts 30°
2026-04-26 22:13 38.18939 -75.33156 37167 ft 501 kts 29°
2026-04-26 22:14 38.24801 -75.28457 37172 ft 493 kts 23°
2026-04-26 22:14 38.31164 -75.25187 37182 ft 491 kts 17°
2026-04-26 22:15 38.37478 -75.22152 37159 ft 477 kts 17°
2026-04-26 22:15 38.43600 -75.19177 37165 ft 466 kts 17°
2026-04-26 22:16 38.49641 -75.16257 37163 ft 466 kts 17°
2026-04-26 22:16 38.55704 -75.13302 37159 ft 466 kts 17°
2026-04-26 22:17 38.61776 -75.10352 37157 ft 466 kts 17°
2026-04-26 22:17 38.64701 -75.08547 37192 ft 469 kts 28°
2026-04-26 22:17 38.67321 -75.06028 37194 ft 473 kts 38°
2026-04-26 22:18 38.72241 -75.00359 37184 ft 480 kts 39°
2026-04-26 22:18 38.77211 -74.94633 37194 ft 479 kts 39°
2026-04-26 22:19 38.82351 -74.89195 37223 ft 478 kts 36°
2026-04-26 22:19 38.87470 -74.83832 37198 ft 474 kts 35°
2026-04-26 22:20 38.91751 -74.79414 37203 ft 475 kts 35°
2026-04-26 22:20 38.97718 -74.73181 36707 ft 477 kts 36°
2026-04-26 22:21 39.00281 -74.70494 36494 ft 468 kts 36°
2026-04-26 22:21 39.02801 -74.67842 36499 ft 469 kts 36°
2026-04-26 22:21 39.07904 -74.62483 36211 ft 474 kts 36°
2026-04-26 22:22 39.10458 -74.59790 35636 ft 475 kts 36°
2026-04-26 22:22 39.12152 -74.58002 35203 ft 475 kts 36°
2026-04-26 22:22 39.14708 -74.55305 34556 ft 475 kts 36°
2026-04-26 22:22 39.18064 -74.51672 33640 ft 475 kts 37°
2026-04-26 22:23 39.19821 -74.49720 33102 ft 474 kts 37°
2026-04-26 22:23 39.22296 -74.46997 32461 ft 472 kts 37°
2026-04-26 22:23 39.24798 -74.44292 31962 ft 465 kts 36°
2026-04-26 22:23 39.27263 -74.41620 31460 ft 459 kts 36°
2026-04-26 22:24 39.29688 -74.38954 30943 ft 453 kts 37°
2026-04-26 22:24 39.32041 -74.36348 30451 ft 448 kts 37°
2026-04-26 22:24 39.34396 -74.33753 29873 ft 443 kts 37°
2026-04-26 22:24 39.36740 -74.31182 29243 ft 440 kts 36°
2026-04-26 22:25 39.39063 -74.28623 28645 ft 436 kts 37°
2026-04-26 22:25 39.41358 -74.26083 28103 ft 431 kts 36°
2026-04-26 22:25 39.43622 -74.23577 27570 ft 425 kts 36°
2026-04-26 22:25 39.45865 -74.21101 27048 ft 420 kts 36°
2026-04-26 22:26 39.48077 -74.18648 26513 ft 416 kts 36°
2026-04-26 22:26 39.50259 -74.16212 26000 ft 412 kts 36°
2026-04-26 22:26 39.52357 -74.13788 25486 ft 410 kts 41°
2026-04-26 22:26 39.54216 -74.10968 24988 ft 409 kts 45°
2026-04-26 22:27 39.56022 -74.08135 24486 ft 405 kts 45°
2026-04-26 22:27 39.57815 -74.05338 23997 ft 401 kts 45°
2026-04-26 22:27 39.59593 -74.02560 23463 ft 398 kts 45°
2026-04-26 22:27 39.61329 -73.99833 22923 ft 394 kts 45°
2026-04-26 22:28 39.63091 -73.97065 22349 ft 391 kts 45°
2026-04-26 22:28 39.64796 -73.94388 21822 ft 388 kts 45°
2026-04-26 22:28 39.66497 -73.91712 21450 ft 381 kts 45°
2026-04-26 22:28 39.68170 -73.89077 21109 ft 373 kts 45°
2026-04-26 22:29 39.69812 -73.86492 20733 ft 367 kts 45°
2026-04-26 22:29 39.71428 -73.83948 20333 ft 363 kts 45°
2026-04-26 22:29 39.73017 -73.81442 19923 ft 359 kts 45°
2026-04-26 22:29 39.74495 -73.79106 19543 ft 355 kts 45°
2026-04-26 22:30 39.76058 -73.76638 19149 ft 352 kts 45°
2026-04-26 22:30 39.77608 -73.74186 18738 ft 349 kts 45°
2026-04-26 22:30 39.79130 -73.71780 18323 ft 347 kts 45°
2026-04-26 22:30 39.80640 -73.69384 18191 ft 337 kts 45°
2026-04-26 22:31 39.82148 -73.66999 18198 ft 344 kts 45°
2026-04-26 22:31 39.83665 -73.64597 18200 ft 343 kts 45°
2026-04-26 22:31 39.85191 -73.62174 18194 ft 346 kts 45°
2026-04-26 22:31 39.86691 -73.59786 18189 ft 345 kts 45°
2026-04-26 22:32 39.88244 -73.57323 18187 ft 352 kts 45°
2026-04-26 22:32 39.89794 -73.54859 17859 ft 351 kts 44°
2026-04-26 22:32 39.91497 -73.52651 17435 ft 343 kts 37°
2026-04-26 22:32 39.93264 -73.50585 16993 ft 340 kts 37°
2026-04-26 22:33 39.95014 -73.48533 16572 ft 337 kts 37°
2026-04-26 22:33 39.98458 -73.44447 15718 ft 331 kts 37°
2026-04-26 22:33 40.00164 -73.42430 15300 ft 329 kts 37°
2026-04-26 22:34 40.01857 -73.40427 14887 ft 326 kts 37°
2026-04-26 22:34 40.03508 -73.38469 14487 ft 324 kts 37°
2026-04-26 22:34 40.05190 -73.36473 14072 ft 322 kts 37°
2026-04-26 22:34 40.06820 -73.34539 13648 ft 320 kts 37°
2026-04-26 22:35 40.08463 -73.32587 13264 ft 316 kts 37°
2026-04-26 22:35 40.10079 -73.30666 12889 ft 311 kts 37°
2026-04-26 22:35 40.11670 -73.28773 12545 ft 308 kts 38°
2026-04-26 22:35 40.13242 -73.26902 12192 ft 304 kts 38°
2026-04-26 22:36 40.14800 -73.25045 11830 ft 301 kts 38°
2026-04-26 22:36 40.16338 -73.23211 11485 ft 298 kts 39°
2026-04-26 22:36 40.17860 -73.21394 11200 ft 293 kts 39°
2026-04-26 22:36 40.19357 -73.19607 11197 ft 295 kts 39°
2026-04-26 22:37 40.20873 -73.17798 11200 ft 294 kts 38°
2026-04-26 22:37 40.22371 -73.16006 11204 ft 295 kts 39°
2026-04-26 22:37 40.23886 -73.14193 11206 ft 295 kts 39°
2026-04-26 22:37 40.25405 -73.12374 11206 ft 295 kts 39°
2026-04-26 22:38 40.26927 -73.10553 11207 ft 295 kts 39°
2026-04-26 22:38 40.28443 -73.08737 11200 ft 295 kts 39°
2026-04-26 22:38 40.29959 -73.06920 11200 ft 295 kts 39°
2026-04-26 22:38 40.31474 -73.05103 11203 ft 296 kts 39°
2026-04-26 22:39 40.32975 -73.03302 11201 ft 296 kts 39°
2026-04-26 22:39 40.34514 -73.01456 11203 ft 295 kts 39°
2026-04-26 22:39 40.36013 -72.99657 11203 ft 295 kts 39°
2026-04-26 22:39 40.37527 -72.97837 11134 ft 297 kts 39°
2026-04-26 22:40 40.39056 -72.96000 10784 ft 297 kts 40°
2026-04-26 22:40 40.40568 -72.94178 10450 ft 294 kts 40°
2026-04-26 22:40 40.42067 -72.92372 10114 ft 290 kts 40°
2026-04-26 22:40 40.43540 -72.90597 9724 ft 280 kts 40°
2026-04-26 22:41 40.44953 -72.88891 9343 ft 274 kts 40°
2026-04-26 22:41 40.46360 -72.87195 8987 ft 273 kts 40°
2026-04-26 22:41 40.47736 -72.85534 8622 ft 271 kts 41°
2026-04-26 22:41 40.49138 -72.83841 8250 ft 270 kts 41°
2026-04-26 22:42 40.50515 -72.82175 7910 ft 268 kts 41°
2026-04-26 22:42 40.51884 -72.80519 7556 ft 267 kts 41°
2026-04-26 22:42 40.53247 -72.78870 7244 ft 264 kts 42°
2026-04-26 22:42 40.54549 -72.77290 7205 ft 255 kts 42°
2026-04-26 22:43 40.55868 -72.75691 7208 ft 257 kts 42°
2026-04-26 22:43 40.57183 -72.74096 7210 ft 257 kts 42°
2026-04-26 22:43 40.58496 -72.72502 7204 ft 257 kts 42°
2026-04-26 22:43 40.59811 -72.70905 7210 ft 257 kts 41°
2026-04-26 22:44 40.61308 -72.69623 7209 ft 258 kts 22°
2026-04-26 22:44 40.63087 -72.69198 6889 ft 263 kts
2026-04-26 22:44 40.64890 -72.69207 6552 ft 262 kts
2026-04-26 22:44 40.66709 -72.69223 6187 ft 260 kts
2026-04-26 22:45 40.68509 -72.69223 5864 ft 257 kts
2026-04-26 22:45 40.70294 -72.69219 5557 ft 255 kts
2026-04-26 22:45 40.72058 -72.69218 5260 ft 252 kts
2026-04-26 22:45 40.73794 -72.69219 5214 ft 250 kts
2026-04-26 22:46 40.75545 -72.69218 5219 ft 249 kts
2026-04-26 22:46 40.77263 -72.69218 5216 ft 251 kts
2026-04-26 22:46 40.79013 -72.69218 5223 ft 250 kts
2026-04-26 22:46 40.80755 -72.69218 5221 ft 250 kts
2026-04-26 22:47 40.82499 -72.69218 5224 ft 250 kts
2026-04-26 22:47 40.84248 -72.69218 5217 ft 251 kts
2026-04-26 22:47 40.85993 -72.69218 5218 ft 251 kts
2026-04-26 22:47 40.87739 -72.69218 5216 ft 251 kts
2026-04-26 22:48 40.89479 -72.69217 5204 ft 250 kts
2026-04-26 22:48 40.91228 -72.69217 5104 ft 251 kts
2026-04-26 22:48 40.92968 -72.69218 4946 ft 248 kts
2026-04-26 22:48 40.94675 -72.69218 4781 ft 248 kts
2026-04-26 22:49 40.96425 -72.69217 4626 ft 248 kts
2026-04-26 22:49 40.98151 -72.69217 4467 ft 248 kts
2026-04-26 22:49 40.99853 -72.69404 4305 ft 252 kts 347°
2026-04-26 22:49 41.01413 -72.70493 4087 ft 259 kts 323°
2026-04-26 22:50 41.02669 -72.72212 3868 ft 257 kts 328°
2026-04-26 22:50 41.04295 -72.72985 3684 ft 248 kts 358°
2026-04-26 22:50 41.06020 -72.73000 3481 ft 247 kts
2026-04-26 22:50 41.07729 -72.72857 3245 ft 246 kts
2026-04-26 22:51 41.09403 -72.72686 3234 ft 238 kts
2026-04-26 22:51 41.10964 -72.72518 3219 ft 211 kts
2026-04-26 22:51 41.12390 -72.72360 3218 ft 203 kts
2026-04-26 22:51 41.13794 -72.72204 3209 ft 204 kts
2026-04-26 22:52 41.15194 -72.72047 3151 ft 202 kts
2026-04-26 22:52 41.16591 -72.71893 3063 ft 203 kts
2026-04-26 22:52 41.17989 -72.71739 2971 ft 204 kts
2026-04-26 22:52 41.19387 -72.71584 2869 ft 202 kts
2026-04-26 22:53 41.20739 -72.71434 2752 ft 184 kts
2026-04-26 22:53 41.21987 -72.71298 2687 ft 177 kts
2026-04-26 22:53 41.23209 -72.71166 2694 ft 175 kts
2026-04-26 22:53 41.24423 -72.71036 2693 ft 175 kts
2026-04-26 22:54 41.25645 -72.70908 2695 ft 175 kts
2026-04-26 22:54 41.26857 -72.70780 2696 ft 176 kts
2026-04-26 22:54 41.28062 -72.70653 2693 ft 174 kts
2026-04-26 22:54 41.29276 -72.70522 2699 ft 176 kts
2026-04-26 22:55 41.30499 -72.70393 2702 ft 181 kts
2026-04-26 22:55 41.31734 -72.70270 2631 ft 182 kts
2026-04-26 22:55 41.32991 -72.70223 2494 ft 182 kts
2026-04-26 22:55 41.34258 -72.70203 2359 ft 183 kts
2026-04-26 22:56 41.35451 -72.70705 2205 ft 188 kts 320°
2026-04-26 22:56 41.36056 -72.72220 2091 ft 186 kts 287°
2026-04-26 22:56 41.36301 -72.73923 1948 ft 188 kts 277°
2026-04-26 22:56 41.36454 -72.75573 1813 ft 174 kts 277°
2026-04-26 22:57 41.36600 -72.77167 1678 ft 173 kts 276°
2026-04-26 22:57 41.36750 -72.78740 1595 ft 169 kts 277°
2026-04-26 22:57 41.36900 -72.80291 1594 ft 166 kts 277°
2026-04-26 22:57 41.36982 -72.81809 1550 ft 165 kts 255°
2026-04-26 22:58 41.36393 -72.83056 1601 ft 159 kts 227°
2026-04-26 22:58 41.35680 -72.84187 1617 ft 162 kts 227°
2026-04-26 22:58 41.34934 -72.85341 1595 ft 160 kts 227°
2026-04-26 22:58 41.34221 -72.86339 1454 ft 140 kts 221°
2026-04-26 22:59 41.33549 -72.87164 1338 ft 128 kts 217°
2026-04-26 22:59 41.32862 -72.87886 1129 ft 124 kts 211°
2026-04-26 22:59 41.32136 -72.88366 993 ft 112 kts 192°
2026-04-26 22:59 41.31324 -72.88525 938 ft 125 kts 181°
2026-04-26 23:00 41.30459 -72.88551 794 ft 126 kts 176°
2026-04-26 23:00 41.29584 -72.88545 656 ft 123 kts 179°
2026-04-26 23:00 41.28740 -72.88607 464 ft 120 kts 181°
2026-04-26 23:00 41.27896 -72.88657 236 ft 120 kts 182°
2026-04-26 23:01 41.27075 -72.88722 47 ft 113 kts 184°
2026-04-26 23:01 41.26503 -72.88775 15 ft 49 kts 188°
2026-04-26 23:01 41.26344 -72.88784 16 ft 0 kts 175°
2026-04-26 23:02 41.26279 -72.88765 17 ft 14 kts 153°
2026-04-26 23:02 41.26254 -72.88770 18 ft 1 kts 251°
2026-04-26 23:02 41.26257 -72.88780 18 ft 2 kts 298°
2026-04-26 23:02 41.26275 -72.88784 17 ft 4 kts 356°
2026-04-26 23:03 41.26323 -72.88778 16 ft 12 kts
2026-04-26 23:03 41.26433 -72.88768 15 ft 17 kts
2026-04-26 23:03 41.26544 -72.88760 15 ft 14 kts
2026-04-26 23:03 41.26629 -72.88759 14 ft 11 kts 351°
2026-04-26 23:04 41.26680 -72.88800 13 ft 7 kts 313°
2026-04-26 23:04 41.26695 -72.88823 14 ft 1 kts 310°
2026-04-26 23:04 41.26742 -72.88895 15 ft 12 kts 311°
2026-04-26 23:04 41.26806 -72.88980 16 ft 14 kts 326°
2026-04-26 23:05 41.26880 -72.89022 16 ft 6 kts 342°
2026-04-26 23:05 41.26890 -72.89024 18 ft 0 kts 352°